Year,Month,Day,Hour,Minute,Value (Times are PST for temperature in C)
2012,06,27,00,00,11.00
2012,06,27,00,01,11.00
2012,06,27,00,02,11.00
2012,06,27,00,03,11.00
2012,06,27,00,04,11.00
2012,06,27,00,05,11.00
2012,06,27,00,06,11.00
2012,06,27,00,07,11.00
2012,06,27,00,08,11.00
2012,06,27,00,09,10.90
2012,06,27,00,10,10.90
2012,06,27,00,11,10.90
2012,06,27,00,12,10.90
2012,06,27,00,13,10.80
2012,06,27,00,14,10.80
2012,06,27,00,15,10.80
2012,06,27,00,16,10.80
2012,06,27,00,17,10.80
2012,06,27,00,18,10.70
2012,06,27,00,19,10.70
2012,06,27,00,20,10.70
2012,06,27,00,21,10.70
2012,06,27,00,22,10.70
2012,06,27,00,23,10.60
2012,06,27,00,24,10.60
2012,06,27,00,25,10.60
2012,06,27,00,26,10.60
2012,06,27,00,27,10.60
2012,06,27,00,28,10.60
2012,06,27,00,29,10.50
2012,06,27,00,30,10.50
2012,06,27,00,31,10.50
2012,06,27,00,32,10.40
2012,06,27,00,33,10.40
2012,06,27,00,34,10.40
2012,06,27,00,35,10.40
2012,06,27,00,36,10.30
2012,06,27,00,37,10.30
2012,06,27,00,38,10.30
2012,06,27,00,39,10.30
2012,06,27,00,40,10.30
2012,06,27,00,41,10.30
2012,06,27,00,42,10.30
2012,06,27,00,43,10.30
2012,06,27,00,44,10.30
2012,06,27,00,45,10.20
2012,06,27,00,46,10.20
2012,06,27,00,47,10.20
2012,06,27,00,48,10.20
2012,06,27,00,49,10.10
2012,06,27,00,50,10.10
2012,06,27,00,51,10.10
2012,06,27,00,52,10.00
2012,06,27,00,53,10.00
2012,06,27,00,54,9.90
2012,06,27,00,55,9.90
2012,06,27,00,56,9.90
2012,06,27,00,57,9.90
2012,06,27,00,58,9.80
2012,06,27,00,59,9.80
2012,06,27,01,00,9.80
2012,06,27,01,01,9.80
2012,06,27,01,02,9.80
2012,06,27,01,03,9.80
2012,06,27,01,04,9.80
2012,06,27,01,05,9.80
2012,06,27,01,06,9.80
2012,06,27,01,07,9.80
2012,06,27,01,08,9.70
2012,06,27,01,09,9.70
2012,06,27,01,10,9.70
2012,06,27,01,11,9.70
2012,06,27,01,12,9.70
2012,06,27,01,13,9.70
2012,06,27,01,14,9.60
2012,06,27,01,15,9.60
2012,06,27,01,16,9.60
2012,06,27,01,17,9.60
2012,06,27,01,18,9.60
2012,06,27,01,19,9.50
2012,06,27,01,20,9.50
2012,06,27,01,21,9.50
2012,06,27,01,22,9.40
2012,06,27,01,23,9.40
2012,06,27,01,24,9.40
2012,06,27,01,25,9.40
2012,06,27,01,26,9.40
2012,06,27,01,27,9.40
2012,06,27,01,28,9.40
2012,06,27,01,29,9.40
2012,06,27,01,30,9.40
2012,06,27,01,31,9.40
2012,06,27,01,32,9.40
2012,06,27,01,33,9.40
2012,06,27,01,34,9.40
2012,06,27,01,35,9.40
2012,06,27,01,36,9.40
2012,06,27,01,37,9.30
2012,06,27,01,38,9.30
2012,06,27,01,39,9.30
2012,06,27,01,40,9.30
2012,06,27,01,41,9.30
2012,06,27,01,42,9.30
2012,06,27,01,43,9.30
2012,06,27,01,44,9.30
2012,06,27,01,45,9.30
2012,06,27,01,46,9.30
2012,06,27,01,47,9.30
2012,06,27,01,48,9.30
2012,06,27,01,49,9.30
2012,06,27,01,50,9.30
2012,06,27,01,51,9.30
2012,06,27,01,52,9.30
2012,06,27,01,53,9.30
2012,06,27,01,54,9.30
2012,06,27,01,55,9.30
2012,06,27,01,56,9.30
2012,06,27,01,57,9.30
2012,06,27,01,58,9.30
2012,06,27,01,59,9.30
2012,06,27,02,00,9.30
2012,06,27,02,01,9.30
2012,06,27,02,02,9.30
2012,06,27,02,03,9.30
2012,06,27,02,04,9.30
2012,06,27,02,05,9.30
2012,06,27,02,06,9.30
2012,06,27,02,07,9.30
2012,06,27,02,08,9.30
2012,06,27,02,09,9.30
2012,06,27,02,10,9.30
2012,06,27,02,11,9.40
2012,06,27,02,12,9.40
2012,06,27,02,13,9.40
2012,06,27,02,14,9.40
2012,06,27,02,15,9.40
2012,06,27,02,16,9.40
2012,06,27,02,17,9.40
2012,06,27,02,18,9.40
2012,06,27,02,19,9.50
2012,06,27,02,20,9.50
2012,06,27,02,21,9.50
2012,06,27,02,22,9.50
2012,06,27,02,23,9.40
2012,06,27,02,24,9.40
2012,06,27,02,25,9.40
2012,06,27,02,26,9.50
2012,06,27,02,27,9.40
2012,06,27,02,28,9.40
2012,06,27,02,29,9.50
2012,06,27,02,30,9.50
2012,06,27,02,31,9.50
2012,06,27,02,32,9.50
2012,06,27,02,33,9.50
2012,06,27,02,34,9.60
2012,06,27,02,35,9.60
2012,06,27,02,36,9.60
2012,06,27,02,37,9.60
2012,06,27,02,38,9.60
2012,06,27,02,39,9.60
2012,06,27,02,40,9.60
2012,06,27,02,41,9.70
2012,06,27,02,42,9.70
2012,06,27,02,43,9.70
2012,06,27,02,44,9.70
2012,06,27,02,45,9.70
2012,06,27,02,46,9.70
2012,06,27,02,47,9.70
2012,06,27,02,48,9.70
2012,06,27,02,49,9.70
2012,06,27,02,50,9.70
2012,06,27,02,51,9.70
2012,06,27,02,52,9.70
2012,06,27,02,53,9.70
2012,06,27,02,54,9.70
2012,06,27,02,55,9.70
2012,06,27,02,56,9.70
2012,06,27,02,57,9.70
2012,06,27,02,58,9.70
2012,06,27,02,59,9.70
2012,06,27,03,00,9.70
2012,06,27,03,01,9.70
2012,06,27,03,02,9.70
2012,06,27,03,06,9.80
2012,06,27,03,07,9.80
2012,06,27,03,08,9.80
2012,06,27,03,09,9.90
2012,06,27,03,10,9.90
2012,06,27,03,11,9.90
2012,06,27,03,12,9.90
2012,06,27,03,13,9.90
2012,06,27,03,14,9.90
2012,06,27,03,15,9.90
2012,06,27,03,16,9.90
2012,06,27,03,17,9.90
2012,06,27,03,18,9.90
2012,06,27,03,19,9.90
2012,06,27,03,20,9.90
2012,06,27,03,21,9.90
2012,06,27,03,22,9.90
2012,06,27,03,23,9.90
2012,06,27,03,24,9.90
2012,06,27,03,25,9.90
2012,06,27,03,26,9.90
2012,06,27,03,27,9.90
2012,06,27,03,28,9.90
2012,06,27,03,29,9.90
2012,06,27,03,30,9.90
2012,06,27,03,31,10.00
2012,06,27,03,32,9.90
2012,06,27,03,33,9.90
2012,06,27,03,34,9.90
2012,06,27,03,35,9.90
2012,06,27,03,36,9.90
2012,06,27,03,37,9.90
2012,06,27,03,38,9.90
2012,06,27,03,39,9.90
2012,06,27,03,40,9.90
2012,06,27,03,41,9.90
2012,06,27,03,42,9.90
2012,06,27,03,43,9.80
2012,06,27,03,44,9.80
2012,06,27,03,45,9.80
2012,06,27,03,46,9.80
2012,06,27,03,47,9.80
2012,06,27,03,48,9.80
2012,06,27,03,49,9.80
2012,06,27,03,50,9.80
2012,06,27,03,51,9.80
2012,06,27,03,52,9.80
2012,06,27,03,53,9.80
2012,06,27,03,54,9.80
2012,06,27,03,55,9.80
2012,06,27,03,56,9.80
2012,06,27,03,57,9.80
2012,06,27,03,58,9.70
2012,06,27,03,59,9.70
2012,06,27,04,00,9.70
2012,06,27,04,01,9.70
2012,06,27,04,02,9.70
2012,06,27,04,03,9.70
2012,06,27,04,04,9.70
2012,06,27,04,05,9.70
2012,06,27,04,06,9.70
2012,06,27,04,07,9.60
2012,06,27,04,08,9.60
2012,06,27,04,09,9.60
2012,06,27,04,10,9.60
2012,06,27,04,11,9.60
2012,06,27,04,12,9.60
2012,06,27,04,13,9.60
2012,06,27,04,14,9.60
2012,06,27,04,15,9.50
2012,06,27,04,16,9.50
2012,06,27,04,17,9.50
2012,06,27,04,18,9.50
2012,06,27,04,19,9.50
2012,06,27,04,20,9.50
2012,06,27,04,21,9.50
2012,06,27,04,22,9.50
2012,06,27,04,23,9.40
2012,06,27,04,24,9.40
2012,06,27,04,25,9.40
2012,06,27,04,26,9.40
2012,06,27,04,27,9.40
2012,06,27,04,28,9.40
2012,06,27,04,29,9.40
2012,06,27,04,30,9.40
2012,06,27,04,31,9.40
2012,06,27,04,32,9.30
2012,06,27,04,33,9.30
2012,06,27,04,34,9.30
2012,06,27,04,35,9.30
2012,06,27,04,36,9.30
2012,06,27,04,37,9.30
2012,06,27,04,38,9.30
2012,06,27,04,39,9.30
2012,06,27,04,40,9.20
2012,06,27,04,41,9.20
2012,06,27,04,42,9.20
2012,06,27,04,43,9.20
2012,06,27,04,44,9.20
2012,06,27,04,45,9.20
2012,06,27,04,46,9.20
2012,06,27,04,47,9.20
2012,06,27,04,48,9.20
2012,06,27,04,49,9.20
2012,06,27,04,50,9.20
2012,06,27,04,51,9.20
2012,06,27,04,52,9.10
2012,06,27,04,53,9.10
2012,06,27,04,54,9.10
2012,06,27,04,55,9.10
2012,06,27,04,56,9.10
2012,06,27,04,57,9.20
2012,06,27,04,58,9.20
2012,06,27,04,59,9.10
2012,06,27,05,00,9.10
2012,06,27,05,01,9.10
2012,06,27,05,02,9.10
2012,06,27,05,03,9.10
2012,06,27,05,04,9.10
2012,06,27,05,05,9.10
2012,06,27,05,06,9.10
2012,06,27,05,07,9.10
2012,06,27,05,08,9.10
2012,06,27,05,09,9.10
2012,06,27,05,10,9.10
2012,06,27,05,11,9.10
2012,06,27,05,12,9.10
2012,06,27,05,13,9.10
2012,06,27,05,14,9.10
2012,06,27,05,15,9.10
2012,06,27,05,16,9.10
2012,06,27,05,17,9.10
2012,06,27,05,18,9.10
2012,06,27,05,19,9.10
2012,06,27,05,20,9.10
2012,06,27,05,21,9.10
2012,06,27,05,22,9.10
2012,06,27,05,23,9.10
2012,06,27,05,24,9.10
2012,06,27,05,25,9.10
2012,06,27,05,26,9.10
2012,06,27,05,27,9.10
2012,06,27,05,28,9.10
2012,06,27,05,29,9.10
2012,06,27,05,30,9.10
2012,06,27,05,31,9.10
2012,06,27,05,32,9.10
2012,06,27,05,33,9.10
2012,06,27,05,34,9.10
2012,06,27,05,35,9.00
2012,06,27,05,36,9.00
2012,06,27,05,37,9.00
2012,06,27,05,38,9.00
2012,06,27,05,39,9.00
2012,06,27,05,40,9.00
2012,06,27,05,41,9.00
2012,06,27,05,42,9.00
2012,06,27,05,43,9.00
2012,06,27,05,44,8.90
2012,06,27,05,45,8.90
2012,06,27,05,46,8.90
2012,06,27,05,47,9.00
2012,06,27,05,48,9.00
2012,06,27,05,49,9.00
2012,06,27,05,50,9.00
2012,06,27,05,51,9.00
2012,06,27,05,52,9.00
2012,06,27,05,53,9.00
2012,06,27,05,54,9.00
2012,06,27,05,55,9.00
2012,06,27,05,56,9.00
2012,06,27,05,57,9.00
2012,06,27,05,58,8.90
2012,06,27,05,59,8.90
2012,06,27,06,00,8.90
2012,06,27,06,01,8.90
2012,06,27,06,02,8.80
2012,06,27,06,03,8.80
2012,06,27,06,04,8.80
2012,06,27,06,05,8.80
2012,06,27,06,06,8.80
2012,06,27,06,07,8.70
2012,06,27,06,08,8.70
2012,06,27,06,09,8.70
2012,06,27,06,10,8.70
2012,06,27,06,11,8.70
2012,06,27,06,12,8.70
2012,06,27,06,13,8.60
2012,06,27,06,14,8.60
2012,06,27,06,15,8.60
2012,06,27,06,16,8.60
2012,06,27,06,17,8.60
2012,06,27,06,18,8.60
2012,06,27,06,19,8.60
2012,06,27,06,20,8.60
2012,06,27,06,21,8.60
2012,06,27,06,22,8.60
2012,06,27,06,23,8.60
2012,06,27,06,24,8.60
2012,06,27,06,25,8.60
2012,06,27,06,26,8.50
2012,06,27,06,27,8.60
2012,06,27,06,28,8.50
2012,06,27,06,29,8.60
2012,06,27,06,30,8.60
2012,06,27,06,31,8.60
2012,06,27,06,32,8.60
2012,06,27,06,33,8.60
2012,06,27,06,34,8.70
2012,06,27,06,35,8.70
2012,06,27,06,36,8.70
2012,06,27,06,37,8.70
2012,06,27,06,38,8.70
2012,06,27,06,39,8.70
2012,06,27,06,40,8.70
2012,06,27,06,41,8.70
2012,06,27,06,42,8.70
2012,06,27,06,43,8.70
2012,06,27,06,44,8.70
2012,06,27,06,45,8.70
2012,06,27,06,46,8.80
2012,06,27,06,47,8.80
2012,06,27,06,48,8.80
2012,06,27,06,49,8.90
2012,06,27,06,50,8.90
2012,06,27,06,51,9.00
2012,06,27,06,52,9.10
2012,06,27,06,53,9.10
2012,06,27,06,54,9.20
2012,06,27,06,55,9.30
2012,06,27,06,56,9.40
2012,06,27,06,57,9.50
2012,06,27,06,58,9.60
2012,06,27,06,59,9.60
2012,06,27,07,00,9.70
2012,06,27,07,01,9.80
2012,06,27,07,02,9.80
2012,06,27,07,03,9.80
2012,06,27,07,04,9.90
2012,06,27,07,05,9.90
2012,06,27,07,06,10.00
2012,06,27,07,07,10.00
2012,06,27,07,08,10.10
2012,06,27,07,09,10.20
2012,06,27,07,10,10.30
2012,06,27,07,11,10.30
2012,06,27,07,12,10.40
2012,06,27,07,13,10.50
2012,06,27,07,14,10.60
2012,06,27,07,15,10.70
2012,06,27,07,16,10.80
2012,06,27,07,17,10.90
2012,06,27,07,18,11.00
2012,06,27,07,19,11.10
2012,06,27,07,20,11.20
2012,06,27,07,21,11.30
2012,06,27,07,22,11.40
2012,06,27,07,23,11.50
2012,06,27,07,24,11.60
2012,06,27,07,25,11.70
2012,06,27,07,26,11.80
2012,06,27,07,27,11.90
2012,06,27,07,28,12.00
2012,06,27,07,29,12.00
2012,06,27,07,30,12.10
2012,06,27,07,31,12.20
2012,06,27,07,32,12.30
2012,06,27,07,33,12.30
2012,06,27,07,34,12.30
2012,06,27,07,35,12.30
2012,06,27,07,36,12.30
2012,06,27,07,37,12.30
2012,06,27,07,38,12.30
2012,06,27,07,39,12.30
2012,06,27,07,40,12.30
2012,06,27,07,41,12.40
2012,06,27,07,42,12.40
2012,06,27,07,43,12.40
2012,06,27,07,44,12.40
2012,06,27,07,45,12.40
2012,06,27,07,46,12.40
2012,06,27,07,47,12.40
2012,06,27,07,48,12.40
2012,06,27,07,49,12.50
2012,06,27,07,50,12.50
2012,06,27,07,51,12.60
2012,06,27,07,52,12.60
2012,06,27,07,53,12.70
2012,06,27,07,54,12.70
2012,06,27,07,55,12.70
2012,06,27,07,56,12.70
2012,06,27,07,57,12.70
2012,06,27,07,58,12.70
2012,06,27,07,59,12.70
2012,06,27,08,00,12.70
2012,06,27,08,01,12.70
2012,06,27,08,02,12.70
2012,06,27,08,03,12.80
2012,06,27,08,04,12.80
2012,06,27,08,05,12.80
2012,06,27,08,06,12.80
2012,06,27,08,07,12.80
2012,06,27,08,08,12.80
2012,06,27,08,09,12.90
2012,06,27,08,10,12.90
2012,06,27,08,11,12.90
2012,06,27,08,12,12.90
2012,06,27,08,13,12.90
2012,06,27,08,14,12.90
2012,06,27,08,15,12.90
2012,06,27,08,16,13.00
2012,06,27,08,17,13.00
2012,06,27,08,18,13.00
2012,06,27,08,19,13.00
2012,06,27,08,20,13.10
2012,06,27,08,21,13.10
2012,06,27,08,22,13.10
2012,06,27,08,23,13.10
2012,06,27,08,24,13.20
2012,06,27,08,25,13.20
2012,06,27,08,26,13.20
2012,06,27,08,27,13.30
2012,06,27,08,28,13.30
2012,06,27,08,29,13.40
2012,06,27,08,30,13.50
2012,06,27,08,31,13.50
2012,06,27,08,32,13.50
2012,06,27,08,33,13.60
2012,06,27,08,34,13.60
2012,06,27,08,35,13.70
2012,06,27,08,36,13.70
2012,06,27,08,37,13.70
2012,06,27,08,38,13.80
2012,06,27,08,39,13.80
2012,06,27,08,40,13.90
2012,06,27,08,41,13.90
2012,06,27,08,42,14.00
2012,06,27,08,43,14.00
2012,06,27,08,44,14.10
2012,06,27,08,45,14.20
2012,06,27,08,46,14.20
2012,06,27,08,47,14.30
2012,06,27,08,48,14.30
2012,06,27,08,49,14.30
2012,06,27,08,50,14.30
2012,06,27,08,51,14.30
2012,06,27,08,52,14.30
2012,06,27,08,53,14.30
2012,06,27,08,54,14.30
2012,06,27,08,55,14.40
2012,06,27,08,56,14.40
2012,06,27,08,57,14.50
2012,06,27,08,58,14.50
2012,06,27,08,59,14.60
2012,06,27,09,00,14.60
2012,06,27,09,01,14.60
2012,06,27,09,02,14.60
2012,06,27,09,03,14.70
2012,06,27,09,04,14.70
2012,06,27,09,05,14.70
2012,06,27,09,06,14.70
2012,06,27,09,07,14.80
2012,06,27,09,08,14.80
2012,06,27,09,09,14.80
2012,06,27,09,10,14.80
2012,06,27,09,11,14.80
2012,06,27,09,12,14.70
2012,06,27,09,13,14.70
2012,06,27,09,14,14.60
2012,06,27,09,15,14.50
2012,06,27,09,16,14.40
2012,06,27,09,17,14.30
2012,06,27,09,18,14.30
2012,06,27,09,19,14.20
2012,06,27,09,20,14.20
2012,06,27,09,21,14.10
2012,06,27,09,22,14.10
2012,06,27,09,23,14.10
2012,06,27,09,24,14.10
2012,06,27,09,25,14.10
2012,06,27,09,26,14.10
2012,06,27,09,27,14.10
2012,06,27,09,28,14.10
2012,06,27,09,29,14.10
2012,06,27,09,30,14.20
2012,06,27,09,31,14.30
2012,06,27,09,32,14.40
2012,06,27,09,33,14.40
2012,06,27,09,34,14.50
2012,06,27,09,35,14.60
2012,06,27,09,36,14.70
2012,06,27,09,37,14.80
2012,06,27,09,38,14.90
2012,06,27,09,39,15.00
2012,06,27,09,40,15.00
2012,06,27,09,41,15.00
2012,06,27,09,42,15.00
2012,06,27,09,43,15.00
2012,06,27,09,44,15.00
2012,06,27,09,45,15.10
2012,06,27,09,46,15.20
2012,06,27,09,47,15.20
2012,06,27,09,48,15.30
2012,06,27,09,49,15.30
2012,06,27,09,50,15.30
2012,06,27,09,51,15.30
2012,06,27,09,52,15.30
2012,06,27,09,53,15.30
2012,06,27,09,54,15.10
2012,06,27,09,55,15.10
2012,06,27,09,56,15.20
2012,06,27,09,57,15.30
2012,06,27,09,58,15.40
2012,06,27,09,59,15.40
2012,06,27,10,00,15.50
2012,06,27,10,01,15.50
2012,06,27,10,02,15.60
2012,06,27,10,03,15.60
2012,06,27,10,04,15.60
2012,06,27,10,05,15.60
2012,06,27,10,06,15.50
2012,06,27,10,07,15.50
2012,06,27,10,08,15.40
2012,06,27,10,09,15.40
2012,06,27,10,10,15.30
2012,06,27,10,11,15.30
2012,06,27,10,12,15.30
2012,06,27,10,13,15.40
2012,06,27,10,14,15.40
2012,06,27,10,15,15.50
2012,06,27,10,16,15.70
2012,06,27,10,17,15.80
2012,06,27,10,18,15.80
2012,06,27,10,19,15.90
2012,06,27,10,20,15.90
2012,06,27,10,21,15.90
2012,06,27,10,22,15.90
2012,06,27,10,23,15.90
2012,06,27,10,24,16.00
2012,06,27,10,25,16.00
2012,06,27,10,26,16.10
2012,06,27,10,27,16.10
2012,06,27,10,28,16.20
2012,06,27,10,29,16.10
2012,06,27,10,30,16.10
2012,06,27,10,31,16.10
2012,06,27,10,32,16.00
2012,06,27,10,33,16.00
2012,06,27,10,34,16.00
2012,06,27,10,35,15.90
2012,06,27,10,36,16.00
2012,06,27,10,37,15.90
2012,06,27,10,38,16.00
2012,06,27,10,39,16.00
2012,06,27,10,40,16.10
2012,06,27,10,41,16.10
2012,06,27,10,42,16.20
2012,06,27,10,43,16.30
2012,06,27,10,44,16.30
2012,06,27,10,45,16.40
2012,06,27,10,46,16.50
2012,06,27,10,47,16.60
2012,06,27,10,48,16.60
2012,06,27,10,49,16.70
2012,06,27,10,50,16.70
2012,06,27,10,51,16.70
2012,06,27,10,52,16.70
2012,06,27,10,53,16.60
2012,06,27,10,54,16.60
2012,06,27,10,55,16.60
2012,06,27,10,56,16.60
2012,06,27,10,57,16.60
2012,06,27,10,58,16.60
2012,06,27,10,59,16.70
2012,06,27,11,00,16.70
2012,06,27,11,01,16.80
2012,06,27,11,02,16.80
2012,06,27,11,03,16.90
2012,06,27,11,04,16.80
2012,06,27,11,05,16.70
2012,06,27,11,06,16.70
2012,06,27,11,07,16.60
2012,06,27,11,08,16.60
2012,06,27,11,09,16.60
2012,06,27,11,10,16.60
2012,06,27,11,11,16.60
2012,06,27,11,12,16.50
2012,06,27,11,13,16.50
2012,06,27,11,14,16.60
2012,06,27,11,15,16.70
2012,06,27,11,16,16.70
2012,06,27,11,17,16.70
2012,06,27,11,18,16.80
2012,06,27,11,19,16.80
2012,06,27,11,20,16.80
2012,06,27,11,21,16.90
2012,06,27,11,22,17.00
2012,06,27,11,23,17.10
2012,06,27,11,24,17.20
2012,06,27,11,25,17.20
2012,06,27,11,26,17.30
2012,06,27,11,27,17.30
2012,06,27,11,28,17.40
2012,06,27,11,29,17.40
2012,06,27,11,30,17.30
2012,06,27,11,31,17.40
2012,06,27,11,32,17.50
2012,06,27,11,33,17.60
2012,06,27,11,34,17.60
2012,06,27,11,35,17.50
2012,06,27,11,36,17.40
2012,06,27,11,37,17.30
2012,06,27,11,38,17.10
2012,06,27,11,39,16.90
2012,06,27,11,40,16.70
2012,06,27,11,41,16.60
2012,06,27,11,42,16.60
2012,06,27,11,43,16.60
2012,06,27,11,44,16.70
2012,06,27,11,45,16.70
2012,06,27,11,46,16.80
2012,06,27,11,47,17.00
2012,06,27,11,48,17.10
2012,06,27,11,49,17.20
2012,06,27,11,50,17.30
2012,06,27,11,51,17.30
2012,06,27,11,52,17.40
2012,06,27,11,53,17.50
2012,06,27,11,54,17.60
2012,06,27,11,55,17.60
2012,06,27,11,56,17.50
2012,06,27,11,57,17.30
2012,06,27,11,58,17.20
2012,06,27,11,59,17.10
2012,06,27,12,00,17.00
2012,06,27,12,01,17.00
2012,06,27,12,02,16.90
2012,06,27,12,03,16.80
2012,06,27,12,04,16.80
2012,06,27,12,05,16.80
2012,06,27,12,06,16.90
2012,06,27,12,07,16.90
2012,06,27,12,08,16.90
2012,06,27,12,09,16.90
2012,06,27,12,10,17.00
2012,06,27,12,11,17.00
2012,06,27,12,12,16.90
2012,06,27,12,13,17.00
2012,06,27,12,14,17.10
2012,06,27,12,15,17.20
2012,06,27,12,16,17.30
2012,06,27,12,17,17.40
2012,06,27,12,18,17.40
2012,06,27,12,19,17.40
2012,06,27,12,20,17.40
2012,06,27,12,21,17.40
2012,06,27,12,22,17.40
2012,06,27,12,23,17.40
2012,06,27,12,24,17.50
2012,06,27,12,25,17.60
2012,06,27,12,26,17.50
2012,06,27,12,27,17.50
2012,06,27,12,28,17.50
2012,06,27,12,29,17.50
2012,06,27,12,30,17.50
2012,06,27,12,31,17.60
2012,06,27,12,32,17.60
2012,06,27,12,33,17.60
2012,06,27,12,34,17.60
2012,06,27,12,35,17.60
2012,06,27,12,36,17.60
2012,06,27,12,37,17.60
2012,06,27,12,38,17.50
2012,06,27,12,39,17.40
2012,06,27,12,40,17.40
2012,06,27,12,41,17.40
2012,06,27,12,42,17.40
2012,06,27,12,43,17.40
2012,06,27,12,44,17.40
2012,06,27,12,45,17.30
2012,06,27,12,46,17.30
2012,06,27,12,47,17.30
2012,06,27,12,48,17.20
2012,06,27,12,49,17.10
2012,06,27,12,50,17.10
2012,06,27,12,51,17.10
2012,06,27,12,52,17.10
2012,06,27,12,53,17.10
2012,06,27,12,54,17.20
2012,06,27,12,55,17.30
2012,06,27,12,56,17.30
2012,06,27,12,57,17.30
2012,06,27,12,58,17.20
2012,06,27,12,59,17.20
2012,06,27,13,00,17.20
2012,06,27,13,01,17.20
2012,06,27,13,02,17.20
2012,06,27,13,03,17.10
2012,06,27,13,04,17.10
2012,06,27,13,05,17.20
2012,06,27,13,06,17.20
2012,06,27,13,07,17.10
2012,06,27,13,08,17.00
2012,06,27,13,09,17.00
2012,06,27,13,10,17.00
2012,06,27,13,11,17.00
2012,06,27,13,12,17.10
2012,06,27,13,13,17.10
2012,06,27,13,14,17.20
2012,06,27,13,15,17.10
2012,06,27,13,16,17.00
2012,06,27,13,17,17.00
2012,06,27,13,18,16.90
2012,06,27,13,19,16.90
2012,06,27,13,20,16.90
2012,06,27,13,21,16.80
2012,06,27,13,22,16.90
2012,06,27,13,23,17.00
2012,06,27,13,24,17.00
2012,06,27,13,25,17.10
2012,06,27,13,26,17.20
2012,06,27,13,27,17.20
2012,06,27,13,28,17.30
2012,06,27,13,29,17.40
2012,06,27,13,30,17.40
2012,06,27,13,31,17.50
2012,06,27,13,32,17.50
2012,06,27,13,33,17.60
2012,06,27,13,34,17.60
2012,06,27,13,35,17.70
2012,06,27,13,36,17.70
2012,06,27,13,37,17.70
2012,06,27,13,38,17.70
2012,06,27,13,39,17.60
2012,06,27,13,40,17.60
2012,06,27,13,41,17.60
2012,06,27,13,42,17.50
2012,06,27,13,43,17.50
2012,06,27,13,44,17.50
2012,06,27,13,45,17.50
2012,06,27,13,46,17.60
2012,06,27,13,47,17.60
2012,06,27,13,48,17.60
2012,06,27,13,49,17.70
2012,06,27,13,50,17.70
2012,06,27,13,51,17.70
2012,06,27,13,52,17.70
2012,06,27,13,53,17.70
2012,06,27,13,54,17.70
2012,06,27,13,55,17.60
2012,06,27,13,56,17.60
2012,06,27,13,57,17.70
2012,06,27,13,58,17.70
2012,06,27,13,59,17.80
2012,06,27,14,00,17.80
2012,06,27,14,01,17.90
2012,06,27,14,02,17.90
2012,06,27,14,03,18.10
2012,06,27,14,04,18.10
2012,06,27,14,05,18.10
2012,06,27,14,06,18.00
2012,06,27,14,07,17.90
2012,06,27,14,08,17.90
2012,06,27,14,09,18.00
2012,06,27,14,10,18.00
2012,06,27,14,11,18.10
2012,06,27,14,12,18.10
2012,06,27,14,13,18.20
2012,06,27,14,14,18.30
2012,06,27,14,15,18.30
2012,06,27,14,16,18.30
2012,06,27,14,17,18.30
2012,06,27,14,18,18.30
2012,06,27,14,19,18.30
2012,06,27,14,20,18.30
2012,06,27,14,21,18.30
2012,06,27,14,22,18.30
2012,06,27,14,23,18.30
2012,06,27,14,24,18.20
2012,06,27,14,25,18.20
2012,06,27,14,26,18.20
2012,06,27,14,27,18.20
2012,06,27,14,28,18.10
2012,06,27,14,29,18.10
2012,06,27,14,30,18.10
2012,06,27,14,31,18.20
2012,06,27,14,32,18.30
2012,06,27,14,33,18.20
2012,06,27,14,34,18.20
2012,06,27,14,35,18.10
2012,06,27,14,36,18.10
2012,06,27,14,37,18.00
2012,06,27,14,38,17.90
2012,06,27,14,39,17.90
2012,06,27,14,40,17.80
2012,06,27,14,41,17.80
2012,06,27,14,42,17.90
2012,06,27,14,43,17.90
2012,06,27,14,44,17.90
2012,06,27,14,45,17.90
2012,06,27,14,46,17.80
2012,06,27,14,47,17.80
2012,06,27,14,48,17.80
2012,06,27,14,49,17.80
2012,06,27,14,50,17.80
2012,06,27,14,51,17.90
2012,06,27,14,52,18.00
2012,06,27,14,53,18.00
2012,06,27,14,54,18.10
2012,06,27,14,55,18.10
2012,06,27,14,56,18.20
2012,06,27,14,57,18.20
2012,06,27,14,58,18.30
2012,06,27,14,59,18.30
2012,06,27,15,00,18.20
2012,06,27,15,01,18.20
2012,06,27,15,02,18.10
2012,06,27,15,03,18.10
2012,06,27,15,04,18.00
2012,06,27,15,05,17.90
2012,06,27,15,06,17.90
2012,06,27,15,07,17.90
2012,06,27,15,08,17.80
2012,06,27,15,09,17.80
2012,06,27,15,10,17.80
2012,06,27,15,11,17.80
2012,06,27,15,12,17.90
2012,06,27,15,13,17.90
2012,06,27,15,14,18.00
2012,06,27,15,15,18.00
2012,06,27,15,16,18.00
2012,06,27,15,17,18.00
2012,06,27,15,18,18.00
2012,06,27,15,19,18.00
2012,06,27,15,20,18.10
2012,06,27,15,21,18.20
2012,06,27,15,22,18.20
2012,06,27,15,23,18.20
2012,06,27,15,24,18.20
2012,06,27,15,25,18.20
2012,06,27,15,26,18.20
2012,06,27,15,27,18.10
2012,06,27,15,28,18.10
2012,06,27,15,29,18.00
2012,06,27,15,30,18.00
2012,06,27,15,31,18.00
2012,06,27,15,32,17.90
2012,06,27,15,33,17.90
2012,06,27,15,34,17.90
2012,06,27,15,35,17.90
2012,06,27,15,36,17.90
2012,06,27,15,37,18.00
2012,06,27,15,38,18.10
2012,06,27,15,39,18.20
2012,06,27,15,40,18.20
2012,06,27,15,41,18.20
2012,06,27,15,42,18.20
2012,06,27,15,43,18.20
2012,06,27,15,44,18.30
2012,06,27,15,45,18.30
2012,06,27,15,46,18.30
2012,06,27,15,47,18.40
2012,06,27,15,48,18.40
2012,06,27,15,49,18.30
2012,06,27,15,50,18.40
2012,06,27,15,51,18.40
2012,06,27,15,52,18.40
2012,06,27,15,53,18.40
2012,06,27,15,54,18.50
2012,06,27,15,55,18.60
2012,06,27,15,56,18.60
2012,06,27,15,57,18.60
2012,06,27,15,58,18.60
2012,06,27,15,59,18.60
2012,06,27,16,00,18.70
2012,06,27,16,01,18.70
2012,06,27,16,02,18.80
2012,06,27,16,03,18.80
2012,06,27,16,04,18.80
2012,06,27,16,05,18.70
2012,06,27,16,06,18.70
2012,06,27,16,07,18.70
2012,06,27,16,08,18.70
2012,06,27,16,09,18.70
2012,06,27,16,10,18.70
2012,06,27,16,11,18.70
2012,06,27,16,12,18.80
2012,06,27,16,13,18.80
2012,06,27,16,14,18.80
2012,06,27,16,15,18.70
2012,06,27,16,16,18.60
2012,06,27,16,17,18.60
2012,06,27,16,18,18.50
2012,06,27,16,19,18.40
2012,06,27,16,20,18.40
2012,06,27,16,21,18.50
2012,06,27,16,22,18.50
2012,06,27,16,23,18.50
2012,06,27,16,24,18.60
2012,06,27,16,25,18.50
2012,06,27,16,26,18.50
2012,06,27,16,27,18.50
2012,06,27,16,28,18.50
2012,06,27,16,29,18.50
2012,06,27,16,30,18.50
2012,06,27,16,31,18.40
2012,06,27,16,32,18.40
2012,06,27,16,33,18.40
2012,06,27,16,34,18.40
2012,06,27,16,35,18.30
2012,06,27,16,36,18.40
2012,06,27,16,37,18.40
2012,06,27,16,38,18.50
2012,06,27,16,39,18.50
2012,06,27,16,40,18.60
2012,06,27,16,41,18.60
2012,06,27,16,42,18.70
2012,06,27,16,43,18.70
2012,06,27,16,44,18.80
2012,06,27,16,45,18.80
2012,06,27,16,46,18.90
2012,06,27,16,47,18.80
2012,06,27,16,48,18.80
2012,06,27,16,49,18.80
2012,06,27,16,50,18.70
2012,06,27,16,51,18.70
2012,06,27,16,52,18.70
2012,06,27,16,53,18.60
2012,06,27,16,54,18.60
2012,06,27,16,55,18.60
2012,06,27,16,56,18.50
2012,06,27,16,57,18.50
2012,06,27,16,58,18.40
2012,06,27,16,59,18.40
2012,06,27,17,00,18.50
2012,06,27,17,01,18.50
2012,06,27,17,02,18.60
2012,06,27,17,03,18.70
2012,06,27,17,04,18.70
2012,06,27,17,05,18.80
2012,06,27,17,06,18.80
2012,06,27,17,07,18.80
2012,06,27,17,08,18.80
2012,06,27,17,09,18.80
2012,06,27,17,10,18.80
2012,06,27,17,11,18.80
2012,06,27,17,12,18.80
2012,06,27,17,13,18.80
2012,06,27,17,14,18.80
2012,06,27,17,15,18.80
2012,06,27,17,16,18.80
2012,06,27,17,17,18.70
2012,06,27,17,18,18.70
2012,06,27,17,19,18.70
2012,06,27,17,20,18.70
2012,06,27,17,21,18.70
2012,06,27,17,22,18.70
2012,06,27,17,23,18.80
2012,06,27,17,24,18.80
2012,06,27,17,25,18.70
2012,06,27,17,26,18.60
2012,06,27,17,27,18.60
2012,06,27,17,28,18.50
2012,06,27,17,29,18.50
2012,06,27,17,30,18.50
2012,06,27,17,31,18.50
2012,06,27,17,32,18.60
2012,06,27,17,33,18.60
2012,06,27,17,34,18.60
2012,06,27,17,35,18.60
2012,06,27,17,36,18.60
2012,06,27,17,37,18.70
2012,06,27,17,38,18.70